Gustavus, AK

1:58 PM AKST on February 19, 2018 (GMT -0900)
Gustavus

Weather History for PAGS - February, 2012

Change the Weather History Date:

Sunday, February 5, 2012

  Actual Average Record
Temperature  
Mean Temperature 32 °F -  
Max Temperature 37 °F 36 °F 50 °F (1954)
Min Temperature 28 °F 21 °F -12 °F (1951)
Degree Days  
Heating Degree Days 32    
Moisture  
Dew Point 30 °F    
Average Humidity 92    
Maximum Humidity 93    
Minimum Humidity 81    
Precipitation  
Precipitation 0.00 in - - ()
Sea Level Pressure  
Sea Level Pressure 30.10 in    
Wind  
Wind Speed 1 mph (North)    
Max Wind Speed 6 mph    
Max Gust Speed -    
Visibility 8 miles    
Events      
Averages and records for this station are not official NWS values.
T = Trace of Precipitation, MM = Missing Value Source: NWS Daily Summary

Daily Weather History Graph

Daily Weather History Graph

Search for Another Location

Airport or City:

Trip Planner

Search our weather history database for the weather conditions in past years. The results will help you decide how hot, cold, wet, or windy it might be!

Date:

Astronomy

Feb. 05, 2012 Rise Set
Actual Time 8:00 AM AKST 4:34 PM AKST
Civil Twilight 7:16 AM AKST 5:18 PM AKST
Nautical Twilight 6:28 AM AKST 6:05 PM AKST
Astronomical Twilight 5:42 AM AKST 6:51 PM AKST
Moon 2:24 PM AKST (2/5) 6:36 AM AKST (2/5)
Length of Visible Light 10h 01m
Length of Day
8h 34m
Waxing Gibbous, 95% of the Moon is Illuminated
Feb 5
Waxing Gibbous
Feb 7
Full
Feb 14
Last Quarter
Feb 21
New
Feb 29
First Quarter

Hourly Weather History & Observations

Time (AKST) Temp. Windchill Dew Point Humidity Pressure Visibility Wind Dir Wind Speed Gust Speed Precip Events Conditions
12:16 AM 32.0 °F - 30.2 °F 93% 30.13 in 0.2 mi Calm Calm - N/A   Overcast
12:36 AM 32.0 °F 28.7 °F 30.2 °F 93% 30.13 in 0.2 mi ENE 3.5 mph - N/A   Overcast
12:56 AM 32.0 °F - 30.2 °F 93% 30.11 in 0.2 mi Calm Calm - N/A   Overcast
1:16 AM 32.0 °F - 30.2 °F 93% 30.10 in 0.2 mi Calm Calm - N/A   Overcast
1:36 AM 32.0 °F - 30.2 °F 93% 30.10 in 0.5 mi Calm Calm - N/A   Overcast
1:56 AM 32.0 °F - 30.2 °F 93% 30.10 in 0.5 mi Calm Calm - N/A   Overcast
2:16 AM 30.2 °F - 28.4 °F 93% 30.10 in 0.5 mi Calm Calm - N/A   Overcast
2:36 AM 32.0 °F 27.5 °F 30.2 °F 93% 30.10 in 0.5 mi ESE 4.6 mph - N/A   Overcast
2:56 AM 32.0 °F - 30.2 °F 93% 30.09 in 2.5 mi Calm Calm - N/A   Mostly Cloudy
3:16 AM 30.2 °F - 28.4 °F 93% 30.08 in 10.0 mi Calm Calm - N/A   Partly Cloudy
3:36 AM 30.2 °F - 28.4 °F 93% 30.07 in 10.0 mi Calm Calm - N/A   Clear
3:56 AM 30.2 °F - 28.4 °F 93% 30.07 in 10.0 mi Calm Calm - N/A   Clear
4:16 AM 30.2 °F - 28.4 °F 93% 30.07 in 10.0 mi Calm Calm - N/A   Clear
4:36 AM 30.2 °F - 28.4 °F 93% 30.07 in 10.0 mi Calm Calm - N/A   Clear
4:56 AM 30.2 °F - 28.4 °F 93% 30.06 in 10.0 mi Calm Calm - N/A   Clear
5:16 AM 30.2 °F - 28.4 °F 93% 30.07 in 10.0 mi Calm Calm - N/A   Clear
5:36 AM 30.2 °F - 28.4 °F 93% 30.06 in 10.0 mi Calm Calm - N/A   Clear
5:56 AM 30.2 °F - 28.4 °F 93% 30.06 in 10.0 mi Calm Calm - N/A   Clear
6:16 AM 30.2 °F - 28.4 °F 93% 30.06 in 10.0 mi Calm Calm - N/A   Clear
6:36 AM 30.2 °F - 28.4 °F 93% 30.06 in 10.0 mi Calm Calm - N/A   Clear
6:56 AM 28.4 °F - 26.6 °F 93% 30.06 in 10.0 mi Calm Calm - N/A   Clear
7:16 AM 28.4 °F - 26.6 °F 93% 30.06 in 10.0 mi Calm Calm - N/A   Clear
7:36 AM 28.4 °F 24.6 °F 26.6 °F 93% 30.06 in 10.0 mi North 3.5 mph - N/A   Clear
7:56 AM 28.4 °F - 26.6 °F 93% 30.05 in 10.0 mi Calm Calm - N/A   Clear
8:16 AM 28.4 °F - 26.6 °F 93% 30.07 in 10.0 mi Calm Calm - N/A   Clear
8:36 AM 28.4 °F 24.6 °F 26.6 °F 93% 30.07 in 10.0 mi NNE 3.5 mph - N/A   Clear
8:56 AM 30.2 °F 26.7 °F 28.4 °F 93% 30.08 in 10.0 mi NNW 3.5 mph - N/A   Clear
9:16 AM 30.2 °F - 26.6 °F 86% 30.08 in 10.0 mi Calm Calm - N/A   Clear
9:36 AM 30.2 °F 25.4 °F 28.4 °F 93% 30.08 in 10.0 mi NNW 4.6 mph - N/A   Clear
9:56 AM 30.2 °F - 28.4 °F 93% 30.09 in 10.0 mi North - - N/A   Clear
10:16 AM 30.2 °F - 28.4 °F 93% 30.10 in 10.0 mi Calm Calm - N/A   Clear
10:36 AM 30.2 °F - 28.4 °F 93% 30.10 in 10.0 mi Calm Calm - N/A   Mostly Cloudy
10:56 AM 32.0 °F - 30.2 °F 93% 30.10 in 10.0 mi Calm Calm - N/A   Overcast
11:16 AM 32.0 °F - 30.2 °F 93% 30.10 in 10.0 mi Calm Calm - N/A   Overcast
11:36 AM 33.8 °F - 30.2 °F 87% 30.11 in 10.0 mi Calm Calm - N/A   Overcast
11:56 AM 33.8 °F 30.8 °F 30.2 °F 87% 30.11 in 10.0 mi NNW 3.5 mph - N/A   Overcast
12:16 PM 33.8 °F - 30.2 °F 87% 30.12 in 10.0 mi Calm Calm - N/A   Overcast
12:36 PM 33.8 °F 30.8 °F 32.0 °F 93% 30.11 in 10.0 mi North 3.5 mph - N/A   Overcast
12:56 PM 35.6 °F 32.8 °F 33.8 °F 93% 30.11 in 10.0 mi North 3.5 mph - N/A   Overcast
1:16 PM 35.6 °F - 33.8 °F 93% 30.11 in 10.0 mi Calm Calm - N/A   Overcast
1:36 PM 35.6 °F - 33.8 °F 93% 30.11 in 10.0 mi Calm Calm - N/A   Scattered Clouds
1:56 PM 35.6 °F - 33.8 °F 93% 30.12 in 10.0 mi Calm Calm - N/A   Clear
2:16 PM 35.6 °F - 33.8 °F 93% 30.12 in 10.0 mi Calm Calm - N/A   Partly Cloudy
2:36 PM 35.6 °F - 33.8 °F 93% 30.11 in 10.0 mi Calm Calm - N/A   Scattered Clouds
2:56 PM 35.6 °F 31.7 °F 33.8 °F 93% 30.12 in 10.0 mi NNW 4.6 mph - N/A   Mostly Cloudy
3:16 PM 35.6 °F 32.8 °F 33.8 °F 93% 30.12 in 10.0 mi North 3.5 mph - N/A   Overcast
3:36 PM 35.6 °F - 33.8 °F 93% 30.12 in 10.0 mi Calm Calm - N/A   Overcast
3:56 PM 35.6 °F - 33.8 °F 93% 30.13 in 10.0 mi Calm Calm - N/A   Scattered Clouds
4:16 PM 35.6 °F - 33.8 °F 93% 30.13 in 10.0 mi Calm Calm - N/A   Scattered Clouds
4:36 PM 35.6 °F - 33.8 °F 93% 30.14 in 10.0 mi Calm Calm - N/A   Scattered Clouds
4:56 PM 37.4 °F 32.8 °F 32.0 °F 81% 30.14 in 10.0 mi East 5.8 mph - N/A   Mostly Cloudy
5:16 PM 35.6 °F - 30.2 °F 81% 30.14 in 10.0 mi Calm Calm - N/A   Mostly Cloudy
5:36 PM 33.8 °F - 30.2 °F 87% 30.16 in 10.0 mi Calm Calm - N/A   Overcast
5:56 PM 33.8 °F 28.6 °F 30.2 °F 87% 30.16 in 10.0 mi NNW 5.8 mph - N/A   Overcast
6:16 PM 33.8 °F 28.6 °F 30.2 °F 87% 30.14 in 10.0 mi NNW 5.8 mph - N/A   Scattered Clouds
6:36 PM 33.8 °F - 30.2 °F 87% 30.15 in 10.0 mi Calm Calm - N/A   Partly Cloudy
6:56 PM 33.8 °F - 30.2 °F 87% 30.15 in 10.0 mi Calm Calm - N/A   Partly Cloudy
7:16 PM 33.8 °F - 30.2 °F 87% 30.17 in 10.0 mi Calm Calm - N/A   Scattered Clouds
7:36 PM 33.8 °F 29.6 °F 30.2 °F 87% 30.16 in 10.0 mi North 4.6 mph - N/A   Mostly Cloudy
7:56 PM 33.8 °F 30.8 °F 30.2 °F 87% 30.16 in 10.0 mi WNW 3.5 mph - N/A   Overcast
8:16 PM 33.8 °F - 30.2 °F 87% 30.16 in 10.0 mi Calm Calm - N/A   Scattered Clouds
8:36 PM 32.0 °F 28.7 °F 28.4 °F 87% 30.15 in 10.0 mi NW 3.5 mph - N/A   Mostly Cloudy
8:56 PM 32.0 °F 28.7 °F 28.4 °F 87% 30.16 in 10.0 mi WNW 3.5 mph - N/A   Scattered Clouds
9:16 PM 32.0 °F 28.7 °F 28.4 °F 87% 30.16 in 10.0 mi ESE 3.5 mph - N/A   Scattered Clouds
9:36 PM 30.2 °F - 28.4 °F 93% 30.17 in 10.0 mi Calm Calm - N/A   Partly Cloudy
9:56 PM 30.2 °F - 28.4 °F 93% 30.17 in 10.0 mi Calm Calm - N/A   Clear
10:16 PM 30.2 °F - 28.4 °F 93% 30.17 in 10.0 mi Calm Calm - N/A   Scattered Clouds
10:36 PM 30.2 °F - 26.6 °F 86% 30.17 in 9.0 mi Calm Calm - N/A   Mostly Cloudy
10:56 PM 30.2 °F 26.7 °F 28.4 °F 93% 30.18 in 10.0 mi North 3.5 mph - N/A   Overcast
11:16 PM 30.2 °F - 28.4 °F 93% 30.17 in 10.0 mi Calm Calm - N/A   Mostly Cloudy
11:36 PM 30.2 °F - 28.4 °F 93% 30.17 in 10.0 mi Calm Calm - N/A   Overcast
11:56 PM 30.2 °F - 28.4 °F 93% 30.17 in 10.0 mi Calm Calm - N/A   Mostly Cloudy